[[{"header":{"parameterUnit":"m.s-1","parameterCategory":1,"la1":30.2991,"la2":30.254,"lo1":-89.0895,"lo2":-89.0444,"dy":0.0017,"dx":0.0017,"nx":28,"ny":28,"refTime":"2025-07-10T09:00:00:Z","depth":0,"parameterNumber":2,"parameterNumberName":"U-component_of_WINDS"},"data":[0,0,0,0,0,0,0,0,0,0,0,0,0,0,0,0,0,0,0,0,0,0,0,0,0,0,0,0,0,0,0,0,0,0,0,0,0,0,0,0,0,0,0,0,0,0,0,0,0,0,0,0,0,0,0,0,0,0,3.6065,3.6065,0,3.6064,3.6064,3.6064,3.5982,3.598,3.5978,3.5976,3.5978,3.598,3.5982,0,0,0,0,0,0,0,0,0,0,0,0,0,3.6,3.6001,3.6065,3.6065,3.6065,3.6064,3.6064,3.6064,3.5982,3.598,3.5977,3.5975,3.5977,3.5979,3.5982,0,0,0,0,0,0,0,0,0,0,0,0,0,3.6017,3.6002,3.6065,3.6024,3.6021,3.6064,3.6064,3.6064,3.5983,3.598,3.5976,3.5973,3.5976,3.5979,3.5982,3.6066,0,0,3.5992,3.5993,0,0,0,0,0,0,0,0,3.6016,3.6019,3.603,3.6027,3.6023,3.602,3.6042,3.6065,3.5984,3.5997,3.5976,3.5972,3.5995,3.5996,3.6003,3.6066,3.6066,3.5992,3.5994,3.5995,3.5996,0,0,0,0,0,0,0,3.6015,3.6019,3.6065,3.6031,3.6026,3.6007,3.6006,3.6046,3.6014,3.5996,3.599,3.5991,3.5992,3.6,3.6002,3.6066,3.5992,3.5995,3.5997,3.5998,3.62,3.6203,0,0,0,0,0,0,3.6019,3.6018,3.6065,3.6065,3.6011,3.6011,3.6009,3.6024,3.6013,3.6009,3.5993,3.5987,3.5996,3.5999,3.6002,3.6101,3.5995,3.5998,3.6,3.6197,3.6201,3.6205,0,0,0,0,0,0,3.6018,3.6024,3.6065,3.604,3.6044,3.6015,3.6033,3.6026,3.6034,3.6012,3.6006,3.6007,3.5994,3.5998,3.6051,3.61,3.5999,3.6002,3.6192,3.6198,3.6203,3.6299,0,0,0,0,0,0,3.6016,3.6024,3.6055,3.6041,3.6045,3.6113,3.6036,3.6028,3.6039,3.603,3.6023,3.6019,3.5992,3.6047,3.6054,3.6102,3.6005,3.6188,3.6195,3.6201,3.6291,3.6306,3.632,0,0,0,0,0,3.6014,3.6082,3.6057,3.6063,3.6083,3.6116,3.6119,3.6085,3.6043,3.6075,3.6061,3.6019,3.6093,3.6053,3.606,3.611,3.6185,3.6193,3.62,3.6284,3.6303,3.6319,0,0,0,0,0,0,3.6103,3.6079,3.6051,3.6116,3.6119,3.6102,3.6141,3.6106,3.6121,3.6112,3.6071,3.607,3.613,3.6125,3.6081,3.6192,3.6132,3.6141,3.6193,3.6211,3.6225,3.6226,3.6007,0,0,0,0,0,3.613,3.6157,3.6136,3.6196,3.6198,3.617,3.6183,3.6156,3.6158,3.6159,3.6148,3.6152,3.6176,3.6193,3.6213,3.6289,3.6287,3.6327,3.6342,3.6354,3.6363,3.6405,3.6423,3.6231,3.623,3.623,0,0,3.6186,3.6177,3.6197,3.6213,3.6212,3.6243,3.6171,3.6206,3.6229,3.6164,3.6214,3.6207,3.6208,3.6273,3.6302,3.6271,3.6416,3.6364,3.6373,3.6376,3.6415,3.6433,3.6449,3.6236,3.6235,3.6234,0,0,3.6305,3.63,3.635,3.635,3.6349,3.6329,3.6342,3.633,3.6323,3.6372,3.6324,3.6351,3.6393,3.6396,3.6403,3.6524,3.6488,3.6532,3.6608,3.6649,3.6664,3.6677,3.6722,3.6739,3.6541,3.6542,3.6542,0,3.6376,3.6419,3.6381,3.642,3.6429,3.637,3.6421,3.6424,3.643,3.6438,3.6403,3.6455,3.6452,3.6518,3.6548,3.6555,3.6569,3.6534,3.6665,3.6678,3.669,3.6732,3.6749,3.6547,3.6547,3.6546,3.6545,0,3.6507,3.6539,3.6579,3.6586,3.66,3.6645,3.6614,3.6633,3.6605,3.659,3.6641,3.6635,3.6654,3.6668,3.6642,3.6731,3.6712,3.6672,3.6611,3.6714,3.6753,3.6769,3.6555,3.6553,3.6552,3.655,0,0,3.6683,3.6668,3.6684,3.6687,3.6681,3.6705,3.6748,3.6765,3.6783,3.6789,3.6825,3.6862,3.6825,3.6834,3.6807,3.6843,3.6941,3.6798,3.6798,3.6826,3.7041,3.7073,3.7092,3.6916,3.6919,3.6921,3.7041,0,3.68,3.6871,3.6838,3.6914,3.6943,3.6888,3.6925,3.6927,3.6913,3.6937,3.6922,3.695,3.6898,3.6903,3.6935,3.6922,3.6984,3.6913,3.6951,3.6953,3.6954,3.7112,3.7145,3.7259,3.7056,3.7059,3.7061,0,3.6946,3.6958,3.7037,3.7027,3.7038,3.7072,3.7086,3.7109,3.711,3.7097,3.7107,3.7073,3.7115,3.7054,3.7113,3.7065,3.7079,3.7075,3.7078,3.7082,3.7014,3.7122,3.7294,3.7312,3.7084,3.7082,3.708,0,3.7069,3.7104,3.7156,3.716,3.7149,3.7175,3.7172,3.7169,3.7182,3.7195,3.7203,3.7221,3.7231,3.7247,3.7219,3.7176,3.7282,3.7218,3.7275,3.7276,3.7301,3.7301,3.7481,3.7307,3.7307,3.7307,3.7306,0,3.7203,3.7255,3.7211,3.7244,3.73,3.7261,3.7317,3.7308,3.7306,3.7337,3.729,3.732,3.728,3.7306,3.7284,3.7338,3.7342,3.7335,3.7329,3.734,3.7342,3.735,3.7342,3.7311,3.731,3.7309,3.7309,0,3.7351,3.7324,3.7377,3.7362,3.736,3.7402,3.739,3.742,3.7403,3.7442,3.7449,3.7423,3.7452,3.7425,3.7452,3.7437,3.7509,3.7491,3.7509,3.7505,3.7564,3.7559,3.7757,3.7782,3.7591,3.7593,3.7594,0,3.744,3.7478,3.7467,3.7483,3.7483,3.751,3.7523,3.7486,3.7502,3.7506,3.7536,3.7561,3.7578,3.7627,3.7612,3.7632,3.7615,3.7683,3.7618,3.7629,3.7619,3.7617,3.7622,3.7697,3.7699,3.7701,3.7703,0,3.7601,3.7586,3.7606,3.7622,3.7639,3.765,3.7657,3.7674,3.7636,3.7656,3.7684,3.7698,3.7726,3.7751,3.7767,3.7765,3.7729,3.7723,3.7737,3.775,3.776,3.7757,3.7547,3.7719,3.7717,3.7716,3.7715,3.7715,3.7723,3.7755,3.7752,3.7777,3.7778,3.7786,3.7814,3.78,3.7823,3.7842,3.7819,3.7854,3.7855,3.7872,3.7874,3.7902,3.7874,3.7895,3.79,3.7907,3.7916,3.7754,3.7905,3.7904,3.7904,3.7903,3.7903,0,3.7884,3.7879,3.7902,3.7914,3.7933,3.7895,3.7901,3.7921,3.7952,3.7955,3.7973,3.8007,3.8031,3.8017,3.8039,3.8064,3.8048,3.8071,3.8069,3.807,3.7939,3.7925,3.8083,3.8083,3.8083,3.8083,3.8083,3.8083,3.797,3.8022,3.8006,3.8059,3.8054,3.8087,3.8094,3.8102,3.8104,3.8143,3.8163,3.8153,3.815,3.8171,3.8192,3.8187,3.8198,3.8228,3.8218,3.8097,3.8079,3.8062,3.8049,3.823,3.823,3.8346,3.8347,3.8348]},{"header":{"parameterUnit":"m.s-1","parameterCategory":1,"la1":30.2991,"la2":30.254,"lo1":-89.0895,"lo2":-89.0444,"dy":0.0017,"dx":0.0017,"nx":28,"ny":28,"refTime":"2025-07-10T09:00:00:Z","depth":0,"parameterNumber":3,"parameterNumberName":"V-component_of_WINDS"},"data":[0,0,0,0,0,0,0,0,0,0,0,0,0,0,0,0,0,0,0,0,0,0,0,0,0,0,0,0,0,0,0,0,0,0,0,0,0,0,0,0,0,0,0,0,0,0,0,0,0,0,0,0,0,0,0,0,0,0,0.8562,0.8565,0,0.8846,0.8849,0.8853,0.8938,0.8936,0.8935,0.8933,0.923,0.9239,0.9248,0,0,0,0,0,0,0,0,0,0,0,0,0,0.8096,0.8104,0.8562,0.8565,0.8569,0.8846,0.885,0.8853,0.8938,0.8936,0.8934,0.8933,0.9227,0.9238,0.9249,0,0,0,0,0,0,0,0,0,0,0,0,0,0.8331,0.8107,0.8561,0.8644,0.8655,0.8845,0.885,0.8855,0.8938,0.8936,0.8934,0.8932,0.9223,0.9237,0.9251,0.9381,0,0,0.9293,0.9299,0,0,0,0,0,0,0,0,0.8318,0.8348,0.8629,0.8639,0.8651,0.8854,0.8794,0.9031,0.8939,0.8831,0.8933,0.8931,0.9107,0.913,0.9189,0.9394,0.9407,0.9294,0.9303,0.9309,0.9313,0,0,0,0,0,0,0,0.8302,0.8337,0.8675,0.8633,0.8646,0.8669,0.87,0.884,0.8978,0.884,0.8847,0.8879,0.9113,0.9175,0.9196,0.9412,0.9294,0.9306,0.9315,0.932,0.9736,0.9738,0,0,0,0,0,0,0.827,0.8323,0.8666,0.8683,0.8475,0.8679,0.8713,0.8791,0.8977,0.9003,0.8881,0.8882,0.9153,0.918,0.9207,0.937,0.9309,0.9322,0.933,0.9733,0.9736,0.9739,0,0,0,0,0,0,0.826,0.83,0.8654,0.8505,0.8551,0.8689,0.8776,0.8798,0.886,0.9007,0.9033,0.8919,0.9152,0.9188,0.9336,0.9382,0.9328,0.9341,0.973,0.9734,0.9738,0.9698,0,0,0,0,0,0,0.8246,0.8296,0.8346,0.8505,0.8559,0.8777,0.8779,0.8805,0.8883,0.8888,0.905,0.9075,0.9153,0.9315,0.935,0.94,0.9351,0.9726,0.9732,0.9736,0.9696,0.97,0.9704,0,0,0,0,0,0.8229,0.8326,0.8348,0.8389,0.8624,0.878,0.8811,0.8897,0.8887,0.8939,0.9033,0.9069,0.937,0.9329,0.9369,0.9424,0.9724,0.973,0.9736,0.9694,0.9699,0.9704,0,0,0,0,0,0,0.8172,0.8348,0.8375,0.8525,0.8636,0.8793,0.8862,0.89,0.9018,0.9018,0.9122,0.9158,0.9298,0.9376,0.9327,0.9559,0.9549,0.9563,0.9503,0.9509,0.9513,0.9492,0.9363,0,0,0,0,0,0.8175,0.8285,0.8434,0.8552,0.8606,0.8724,0.8795,0.8851,0.8972,0.902,0.9125,0.9241,0.9362,0.944,0.9559,0.9707,0.9743,0.9764,0.9768,0.9771,0.9782,0.9865,0.9876,0.9759,0.9759,0.9759,0,0,0.8187,0.8296,0.836,0.8543,0.8636,0.8748,0.8763,0.8882,0.8966,0.9039,0.9184,0.9265,0.9402,0.9549,0.962,0.9619,0.9822,0.9778,0.9779,0.979,0.9872,0.9883,0.9893,0.9763,0.9762,0.9762,0,0,0.8263,0.8357,0.8465,0.8556,0.8695,0.8773,0.8798,0.8949,0.9004,0.9152,0.9207,0.9309,0.9516,0.961,0.9685,0.9793,0.9832,0.9829,0.9851,0.993,0.9939,0.9948,0.9986,0.9998,0.984,0.984,0.984,0,0.826,0.843,0.8516,0.8631,0.871,0.8777,0.8887,0.8972,0.9144,0.9197,0.9192,0.945,0.9548,0.9718,0.9743,0.9802,0.9835,0.9813,0.993,0.994,0.995,0.9987,1.0001,0.9839,0.9839,0.9839,0.9839,0,0.8418,0.8535,0.8605,0.8766,0.8852,0.8964,0.9068,0.9146,0.9194,0.9271,0.9419,0.9537,0.968,0.9725,0.9774,0.9901,0.9896,0.991,0.9902,0.9958,0.9995,1.001,0.9837,0.9838,0.9838,0.9838,0,0,0.847,0.8673,0.8698,0.8771,0.8927,0.902,0.9134,0.9271,0.9335,0.9451,0.9549,0.972,0.9733,0.9818,0.9878,0.9947,1.0023,0.9952,0.9957,0.9961,1.017,1.0159,1.0174,1.0048,1.0052,1.0054,1.0158,0,0.8567,0.8772,0.8851,0.9019,0.9127,0.919,0.929,0.9397,0.9471,0.9575,0.9658,0.9777,0.9785,0.9836,0.9907,0.9999,1.0067,0.9992,1.0142,1.0147,1.0107,1.0194,1.0184,1.0276,1.0173,1.0176,1.0178,0,0.8708,0.8821,0.8998,0.9138,0.9187,0.9275,0.9406,0.9504,0.9626,0.9675,0.9767,0.9823,0.9945,0.9927,1.0097,1.0044,1.011,1.0164,1.017,1.0188,1.0166,1.0215,1.0308,1.0322,1.0201,1.02,1.0198,0,0.8727,0.8924,0.9055,0.9115,0.9282,0.9342,0.9415,0.9535,0.9611,0.9726,0.9777,0.9905,0.9976,1.0074,1.0162,1.0141,1.0323,1.0313,1.0368,1.0366,1.0406,1.0402,1.0511,1.0446,1.0446,1.0446,1.0445,0,0.8827,0.8933,0.9065,0.9146,0.9266,0.9356,0.9473,0.955,0.9655,0.9753,0.9816,0.9906,1.0016,1.012,1.019,1.032,1.0351,1.0395,1.0412,1.039,1.0384,1.0435,1.0431,1.0449,1.0449,1.0448,1.0447,0,0.887,0.8963,0.9109,0.9254,0.9292,0.9375,0.9499,0.958,0.9656,0.9778,0.9812,0.9932,1.0057,1.0154,1.0319,1.0365,1.0502,1.0521,1.046,1.0469,1.0519,1.0512,1.0665,1.0689,1.0607,1.0608,1.0608,0,0.8929,0.9011,0.9163,0.9231,0.9302,0.9412,0.949,0.9581,0.9659,0.9802,0.9866,0.9995,1.0104,1.0301,1.0404,1.0529,1.0552,1.0596,1.0572,1.0545,1.0553,1.0547,1.0555,1.06,1.06,1.0601,1.0601,0,0.9022,0.9062,0.9171,0.9294,0.9384,0.9486,0.959,0.9643,0.9753,0.9838,0.9965,1.0049,1.0214,1.0342,1.0477,1.0554,1.0596,1.0607,1.0627,1.0605,1.0567,1.0588,1.0469,1.0604,1.0604,1.0604,1.0604,1.0603,0.9075,0.915,0.9268,0.9386,0.9472,0.9567,0.9649,0.9733,0.9841,0.9981,1.0029,1.016,1.0278,1.0463,1.054,1.0645,1.0647,1.0675,1.0682,1.0688,1.0685,1.0548,1.067,1.067,1.067,1.067,1.067,0,0.9172,0.9249,0.9356,0.9498,0.959,0.9618,0.9734,0.981,0.9924,1.0029,1.0133,1.0279,1.0402,1.0512,1.0641,1.0703,1.0726,1.0734,1.0731,1.0747,1.0677,1.0647,1.0713,1.0713,1.0713,1.0713,1.0713,1.0713,0.9233,0.9361,0.9415,0.9586,0.9664,0.9791,0.9855,0.9942,1.0026,1.0185,1.0287,1.0357,1.0465,1.0601,1.0715,1.0744,1.0789,1.0792,1.0826,1.0758,1.0753,1.0747,1.072,1.08,1.0801,1.0888,1.0889,1.0889]}]]